{"data":{"norad_id":66321,"epoch":"2026-09-19T22:38:50.465760Z","epoch_age_seconds":144677,"freshness":"FRESH","line1":"1 66321U 25253C   26262.94363965  .00014915  00000+0  55031-3 0  9994","line2":"2 66321  43.0021 195.3972 0001081 263.1003  96.9726 15.27586489 49952","mean_motion":15.27586489,"eccentricity":0.0001081,"inclination_deg":43.0021,"raan_deg":195.3972,"arg_perigee_deg":263.1003,"mean_anomaly_deg":96.9726,"bstar":0.00055031,"rev_number":4995,"period_min":94.266348280068,"perigee_km":482.28797359147,"apogee_km":483.77135782459,"semimajor_km":6861.166665708,"source":"CELESTRAK","updated_at":"2026-09-21T09:00:35.873155Z"}}